Weather History for Moffett NAS, CA

Change the Weather History Date:

Saturday, August 24, 2013

  Actual Average Record
Temperature  
Mean Temperature 68 °F 68 °F  
Max Temperature 78 °F 78 °F 100 °F (2010)
Min Temperature 57 °F 59 °F 50 °F (1955)
Degree Days  
Heating Degree Days 0    
Month to date heating degree days 3  
Since 1 June heating degree days 17  
Since 1 July heating degree days 4  
Cooling Degree Days 3    
Month to date cooling degree days 57  
Year to date cooling degree days 322  
Since 1 June cooling degree days 248  
Growing Degree Days 16 (Base 50)    
Moisture  
Dew Point 57 °F    
Average Humidity 70    
Maximum Humidity 87    
Minimum Humidity 53    
Precipitation  
Precipitation 0.00 in 0.00 in 0.03 in (1971)
Month to date precipitation 0.00 0.01  
Year to date precipitation 1.82 9.66  
Since 1 July precipitation T 0.03  
Sea Level Pressure  
Sea Level Pressure 29.90 in    
Wind  
Wind Speed 7 mph (North)    
Max Wind Speed 22 mph    
Max Gust Speed 25 mph    
Visibility 10 miles    
Events      
T = Trace of Precipitation, MM = Missing Value Source: NWS Daily Summary

Daily Weather History Graph

Daily Weather History Graph

Search for Another Location

Airport:

Trip Planner

Search our weather history database for the weather conditions in past years. The results will help you decide how hot, cold, wet, or windy it might be!

Date:

Astronomy

Aug. 24, 2013 Rise Set
Actual Time 6:32 AM PDT 7:48 PM PDT
Civil Twilight 6:05 AM PDT 8:15 PM PDT
Nautical Twilight 5:32 AM PDT 8:47 PM PDT
Astronomical Twilight 4:58 AM PDT 9:21 PM PDT
Moon 9:52 PM PDT (8/24) 10:31 AM PDT (8/24)
Length of Visible Light 14h 10m
Length of Day
13h 15m
Waning Gibbous, 83% of the Moon is Illuminated
Aug 24
Waning Gibbous
Aug 28
Last Quarter
Sep 5
New
Sep 12
First Quarter
Sep 19
Full

Hourly Weather History & Observations

Time (PDT) Temp. Dew Point Humidity Pressure Visibility Wind Dir Wind Speed Gust Speed Precip Events Conditions
12:56 AM 60.1 °F 55.0 °F 83% 29.88 in 10.0 mi NNE 3.5 mph - N/A   Clear
1:56 AM 60.1 °F 55.0 °F 83% 29.89 in 10.0 mi Calm Calm - N/A   Clear
2:56 AM 59.0 °F 55.0 °F 87% 29.89 in 10.0 mi SE 3.5 mph - N/A   Clear
3:56 AM 60.1 °F 55.0 °F 83% 29.89 in 10.0 mi Calm Calm - N/A   Clear
4:56 AM 59.0 °F 53.1 °F 81% 29.88 in 10.0 mi Calm Calm - N/A   Clear
5:56 AM 57.9 °F 53.1 °F 84% 29.89 in 10.0 mi South 3.5 mph - N/A   Clear
6:56 AM 59.0 °F 53.1 °F 81% 29.90 in 10.0 mi Calm Calm - N/A   Clear
7:56 AM 62.1 °F 55.0 °F 78% 29.91 in 10.0 mi Calm Calm - N/A   Clear
8:56 AM 64.9 °F 55.0 °F 70% 29.91 in 10.0 mi Calm Calm - N/A   Clear
9:56 AM 69.1 °F 55.0 °F 61% 29.92 in 10.0 mi Calm Calm - N/A   Clear
10:56 AM 73.9 °F 55.9 °F 53% 29.92 in 10.0 mi North 4.6 mph - N/A   Clear
11:56 AM 75.9 °F 57.0 °F 52% 29.92 in 10.0 mi North 8.1 mph - N/A   Clear
12:56 PM 75.0 °F 57.9 °F 55% 29.91 in 10.0 mi NNW 9.2 mph - N/A   Clear
1:56 PM 75.0 °F 57.9 °F 55% 29.90 in 10.0 mi NNW 19.6 mph - N/A   Clear
2:56 PM 75.9 °F 57.9 °F 54% 29.89 in 10.0 mi North 18.4 mph - N/A   Clear
3:56 PM 75.9 °F 59.0 °F 56% 29.88 in 10.0 mi NNW 13.8 mph 21.9 mph N/A   Clear
4:56 PM 75.0 °F 59.0 °F 57% 29.88 in 10.0 mi NNW 18.4 mph 23.0 mph N/A   Clear
5:56 PM 73.9 °F 60.1 °F 62% 29.88 in 10.0 mi NNW 17.3 mph - N/A   Clear
6:56 PM 71.1 °F 60.1 °F 68% 29.88 in 10.0 mi NNW 17.3 mph - N/A   Clear
7:56 PM 68.0 °F 60.1 °F 76% 29.89 in 10.0 mi NNW 12.7 mph - N/A   Clear
8:56 PM 66.0 °F 59.0 °F 78% 29.91 in 10.0 mi NNE 10.4 mph - N/A   Clear
9:56 PM 64.9 °F 59.0 °F 81% 29.93 in 10.0 mi North 9.2 mph - N/A   Clear
10:56 PM 64.0 °F 59.0 °F 84% 29.93 in 10.0 mi NNE 5.8 mph - N/A   Clear
11:54 PM 64.4 °F 59.0 °F 83% 29.92 in 10.0 mi NW 3.5 mph - N/A   Mostly Cloudy
11:56 PM 64.9 °F 59.0 °F 81% 29.93 in 10.0 mi Calm Calm - N/A   Mostly Cloudy